Regional Weather Roundup
Issued by NWS

Home | Current Version | Previous Version | Text Only | Print | Product List | Glossary Off
Versions: 1 2 3 4 5 6 7 8 9 10 11 12 13 14 15 16 17 18 19 20 21 22 23 24 25 26 27 28 29 30 31 32 33 34 35 36 37 38 39 40 41 42 43 44 45 46 47 48 49 50

000
ASUS43 KMPX 230601
RWRMN
WEATHER ROUNDUP FOR MINNESOTA
NATIONAL WEATHER SERVICE TWIN CITIES/CHANHASSEN MN
100 AM CDT TUE SEP 23 2014


NOTE: "FAIR" INDICATES FEW OR NO CLOUDS BELOW 12,000 FEET WITH NO
SIGNIFICANT WEATHER AND/OR OBSTRUCTIONS TO VISIBILITY. N/A MEANS
CURRENT SKY AND/OR WEATHER CONDITIONS ARE NOT AVAILABLE.

MNZ060>063-068>070-230700-
   Twin Cities Metro

CITY           SKY/WX    TMP DP  RH WIND       PRES   REMARKS
TWIN CITIES    CLEAR     57  50  77 SE3       30.18S
6HR MIN TEMP:  56; 6HR MAX TEMP:  69;

ST PAUL        CLEAR     55  53  93 CALM      30.19S
CRYSTAL        CLEAR     53  49  86 CALM      30.16S
BLAINE         CLEAR     54  52  94 SE3       30.18R
LAKEVILLE      CLEAR     46  46 100 CALM      30.19R
EDEN PRAIRIE   CLEAR     56  49  77 SW6       30.17R
6HR MIN TEMP:  56; 6HR MAX TEMP:  66;

SOUTH ST PAUL  CLEAR     54  51  91 CALM      30.18S
LAKE ELMO      FAIR      48  46  93 CALM      30.19S
$$
MNZ001>005-007-008-013>017-022>024-027-028-230700-
   Northwest Minnesota

CITY           SKY/WX    TMP DP  RH WIND       PRES   REMARKS
BEMIDJI        CLEAR     48  47  97 S3        30.12S
HALLOCK        CLEAR     54  48  82 SE9       30.02S
ROSEAU         CLEAR     54  48  82 S7        30.06S
WARROAD        CLEAR     54  50  87 S3        30.07F
THIEF RVR FALL CLEAR     54  48  82 S7        30.07S
CROOKSTON      CLEAR     52  48  87 SE8       30.06S
FOSSTON        CLEAR     55  48  76 CALM      30.10R
DETROIT LAKES  CLEAR     54  50  87 S6        30.11F
MOORHEAD       CLEAR     57  52  82 S9        30.07S
PARK RAPIDS    CLEAR     52  48  86 SE5       30.12S
MAHNOMEN       FAIR      55  48  75 S6        30.09S
$$
MNZ006-009>011-018-025>026-230700-
   North Central Minnesota

CITY           SKY/WX    TMP DP  RH WIND       PRES   REMARKS
BAUDETTE       CLEAR     50  48  93 CALM      30.08F
FLAG ISLAND    CLEAR     57  54  88 S5        30.05F
INTL FALLS     CLEAR     44  42  93 CALM      30.11R
6HR MIN TEMP:  42; 6HR MAX TEMP:  65;

WASKISH        CLEAR     48  46  93 CALM      30.11R
BIG FORK       CLEAR     45  43  93 CALM      30.14S FOG
LONGVILLE      CLEAR     45  43  93 CALM      30.13S
GRAND RAPIDS   CLEAR     48  45  87 S5        30.15S
CRANE LAKE     CLEAR     43  43 100 CALM      30.14R
ORR            CLEAR     52  46  82 CALM      30.11S
COOK           CLEAR     52  48  87 CALM      30.15R
WALKER         FAIR      48  47  97 CALM      30.13R
$$
MNZ012-019>021-037-230700-
   Northeast Minnesota

CITY           SKY/WX    TMP DP  RH WIND       PRES   REMARKS
DULUTH         CLEAR     55  48  77 W8        30.15S
6HR MIN TEMP:  55; 6HR MAX TEMP:  65;

ELY            CLEAR     50  46  87 SW3       30.14S
HIBBING        CLEAR     41  40  96 CALM      30.15S FOG
EVELETH        CLEAR     43  43 100 CALM      30.16S
DULUTH HARBOR  CLEAR     55  52  88 SW8       30.15S
TWO HARBORS    CLEAR     55  48  76 W6        30.13S
SILVER BAY     CLEAR     43  43 100 CALM      30.13R
GRAND MARAIS     N/A     58  50  75 W7        30.08R
G MARAIS ARPRT CLEAR     55  46  71 W8        30.14S
$$
MNZ029>031-032-039>041-046>048-054>057-064-230700-
   West Central Minnesota

CITY           SKY/WX    TMP DP  RH WIND       PRES   REMARKS
FERGUS FALLS   CLEAR     55  46  71 S9        30.10S
WHEATON        CLEAR     50  46  87 E8        30.09F
MORRIS         CLEAR     52  46  82 SE7       30.11S
ALEXANDRIA     CLEAR     51  47  86 S6        30.14F
ELBOW LAKE     FAIR      53  48  83 SE7       30.11S
WADENA         CLEAR     48  45  87 CALM      30.12S
GLENWOOD       CLEAR     52  46  82 SE7       30.15S
APPLETON       CLEAR     55  48  76 SE6       30.11S
BENSON         CLEAR     54  46  76 S8        30.13S
ORTONVILLE     CLEAR     54  46  76 SE7       30.09S
MADISON        CLEAR     54  48  82 SE7       30.10F
WILLMAR        FAIR      54  46  76 S3        30.16S
$$
MNZ033>034-036-042>043-049>051-058-059-230700-
   Central Minnesota

CITY           SKY/WX    TMP DP  RH WIND       PRES   REMARKS
ST CLOUD       CLEAR     51  48  89 CALM      30.15F
6HR MIN TEMP:  51; 6HR MAX TEMP:  68;

SAUK CENTRE    FAIR      47  46  97 SE3       30.14S
PAYNESVILLE    CLEAR     51  47  86 SE7       30.16S
AITKIN         CLEAR     46  41  81 CALM      30.14S HAZE
PINE RIVER     CLEAR     45  45 100 CALM      30.17S
BRAINERD       CLEAR     47  47 100 CALM      30.15S
STAPLES        CLEAR     46  46 100 CALM      30.13S
LONG PRAIRIE   FAIR      46  46 100 CALM      30.15S
LITTLE FALLS   CLEAR     46  45  93 CALM      30.15S
LITCHFIELD     CLEAR     55  52  88 CALM      30.17R
BUFFALO        CLEAR     53  49  85 CALM      30.18R
MAPLE LAKE     CLEAR     49  48  97 CALM      30.17S
$$
MNZ037-044-045-052-053-230700-
   East Central Minnesota

CITY           SKY/WX    TMP DP  RH WIND       PRES   REMARKS
PRINCETON      CLEAR     50  48  93 SE1       30.16S
MORA           CLEAR     45  45 100 CALM      30.18S FOG
CAMBRIDGE      CLEAR     55  46  71 S5        30.15S
RUSH CITY      MOCLDY    47  46  95 CALM      30.17S
MOOSE LAKE     FOG       45  45 100 CALM      30.15S VSB 3/4
HINCKLEY       FAIR      45  45 100 CALM      30.16F FOG
CLOQUET        CLEAR     52  46  82 W3        30.16S
MCGREGOR       CLEAR     46  45  93 CALM      30.16S
$$
MNZ071>073-080-081-089-090-097-098-230700-
   Southwest Minnesota

CITY           SKY/WX    TMP DP  RH WIND       PRES   REMARKS
MONTEVIDEO     CLEAR     52  46  82 S7        30.14S
GRANITE FALLS  CLEAR     51  47  86 SE8       30.15F
CANBY          CLEAR     53  48  84 SE6       30.11S
MARSHALL       CLEAR     54  45  71 S9        30.12S
REDWOOD FALLS  CLEAR     51  47  86 S7        30.16R
OLIVIA         CLEAR     52  46  82 S3        30.15S
PIPESTONE      PTCLDY    54  48  82 S5        30.13F
WINDOM         CLEAR     54  48  82 CALM      30.17S
WORTHINGTON    PTCLDY    54  48  82 S7        30.17F
JACKSON        PTCLDY    52  46  82 S6        30.18S
TRACY          CLEAR     56  49  76 S8        30.14S
SLAYTON        PTCLDY    53  48  84 CALM      30.15F
$$
MNZ065>067-074>077-082>085-091>093-230700-
   South Central Minnesota

CITY           SKY/WX    TMP DP  RH WIND       PRES   REMARKS
MANKATO        CLEAR     54  45  71 S8        30.18S
NEW ULM        CLEAR     52  48  87 S5        30.17S
ST JAMES       CLEAR     50  46  87 CALM      30.19S
FAIRMONT       CLEAR     48  43  81 S3        30.19S
GLENCOE        CLEAR     52  47  82 CALM      30.17R
FARIBAULT      CLEAR     48  43  81 CALM      30.20R
OWATONNA       CLEAR     57  46  67 S7        30.20R
WASECA         CLEAR     48  43  81 CALM      30.21S
ALBERT LEA     CLEAR     55  48  76 S3        30.21R
$$
MNZ078>079-086>088-094>096-230700-
   Southeast Minnesota

CITY           SKY/WX    TMP DP  RH WIND       PRES   REMARKS
ROCHESTER      CLEAR     49  46  90 S7        30.22S
6HR MIN TEMP:  48; 6HR MAX TEMP:  61;

RED WING       CLEAR     48  48 100 CALM      30.19S
STANTON        CLEAR     51  46  84 CALM      30.18S
DODGE CENTER   CLEAR     48  45  87 CALM      30.21S
WINONA         CLEAR     52  50  93 CALM      30.22S
AUSTIN         CLEAR     48  45  87 CALM      30.21S
PRESTON        CLEAR     52  49  92 SW7       30.23S
$$
ABBREVIATIONS USED IN REMARKS
   TC - TEMPERATURES IN CELSIUS
  WCI - WIND CHILL INDEX
   HX - HEAT INDEX
  VSB - VISIBILITY
$$



USA.gov is the U.S. government's official web portal to all federal, state and local government web resources and services.